Zurück zum Katalog

STARLINK-31702

AktivKommunikationVLEO
NORAD 59585·PAYLOAD·🇺🇸 United States

Gestartet Apr 23, 2024 von Cape Canaveral Space Force Station

Loading…

Nächste Überflüge (nächste 24 Stunden)

TLE

AktuellSource: CelesTrak SupGP

Epoche: Sep 15, 2026, 02:34 UTC

1 59585C 24076X   26258.10743056 -.00001098  00000+0 -39771-4 0  2588
2 59585  43.0036  19.5990 0001752 265.7752 242.4953 15.27581955    10

Verfolge STARLINK-31702 in Echtzeit mit AllMySat

Download on the App Store